Year,Month,Day,Hour,Minute,Value (Times are PST for temperature in C)
2014,03,27,00,00,7.40
2014,03,27,00,01,7.40
2014,03,27,00,03,7.40
2014,03,27,00,04,7.40
2014,03,27,00,05,7.40
2014,03,27,00,06,7.40
2014,03,27,00,07,7.40
2014,03,27,00,09,7.40
2014,03,27,00,10,7.40
2014,03,27,00,11,7.40
2014,03,27,00,13,7.40
2014,03,27,00,14,7.40
2014,03,27,00,16,7.30
2014,03,27,00,17,7.30
2014,03,27,00,18,7.30
2014,03,27,00,19,7.30
2014,03,27,00,20,7.30
2014,03,27,00,21,7.30
2014,03,27,00,22,7.30
2014,03,27,00,23,7.30
2014,03,27,00,24,7.30
2014,03,27,00,25,7.30
2014,03,27,00,26,7.30
2014,03,27,00,27,7.30
2014,03,27,00,28,7.30
2014,03,27,00,29,7.30
2014,03,27,00,30,7.30
2014,03,27,00,31,7.30
2014,03,27,00,32,7.30
2014,03,27,00,33,7.30
2014,03,27,00,34,7.30
2014,03,27,00,35,7.30
2014,03,27,00,36,7.30
2014,03,27,00,37,7.30
2014,03,27,00,38,7.30
2014,03,27,00,39,7.30
2014,03,27,00,40,7.30
2014,03,27,00,41,7.30
2014,03,27,00,42,7.30
2014,03,27,00,43,7.30
2014,03,27,00,44,7.30
2014,03,27,00,45,7.30
2014,03,27,00,46,7.30
2014,03,27,00,47,7.30
2014,03,27,00,48,7.30
2014,03,27,00,49,7.20
2014,03,27,00,50,7.20
2014,03,27,00,51,7.20
2014,03,27,00,52,7.20
2014,03,27,00,54,7.20
2014,03,27,00,55,7.20
2014,03,27,00,56,7.20
2014,03,27,00,57,7.20
2014,03,27,00,58,7.20
2014,03,27,00,59,7.20
2014,03,27,01,00,7.20
2014,03,27,01,01,7.20
2014,03,27,01,02,7.20
2014,03,27,01,04,7.20
2014,03,27,01,05,7.20
2014,03,27,01,06,7.20
2014,03,27,01,07,7.20
2014,03,27,01,08,7.10
2014,03,27,01,09,7.10
2014,03,27,01,10,7.10
2014,03,27,01,12,7.10
2014,03,27,01,13,7.10
2014,03,27,01,15,7.10
2014,03,27,01,16,7.10
2014,03,27,01,17,7.10
2014,03,27,01,18,7.10
2014,03,27,01,19,7.10
2014,03,27,01,21,7.10
2014,03,27,01,22,7.10
2014,03,27,01,23,7.10
2014,03,27,01,24,7.10
2014,03,27,01,25,7.10
2014,03,27,01,26,7.10
2014,03,27,01,27,7.00
2014,03,27,01,28,7.10
2014,03,27,01,29,7.00
2014,03,27,01,30,7.00
2014,03,27,01,31,7.00
2014,03,27,01,32,7.00
2014,03,27,01,34,7.00
2014,03,27,01,35,7.00
2014,03,27,01,36,7.00
2014,03,27,01,37,7.00
2014,03,27,01,38,7.00
2014,03,27,01,39,7.00
2014,03,27,01,40,7.00
2014,03,27,01,42,7.00
2014,03,27,01,43,7.00
2014,03,27,01,44,7.00
2014,03,27,01,45,7.00
2014,03,27,01,46,7.00
2014,03,27,01,47,7.00
2014,03,27,01,48,7.00
2014,03,27,01,49,7.00
2014,03,27,01,50,7.00
2014,03,27,01,51,7.00
2014,03,27,01,53,7.00
2014,03,27,01,54,7.00
2014,03,27,01,55,7.00
2014,03,27,01,56,7.00
2014,03,27,01,57,7.00
2014,03,27,01,58,7.00
2014,03,27,01,59,7.00
2014,03,27,02,00,6.90
2014,03,27,02,01,6.90
2014,03,27,02,02,6.90
2014,03,27,02,04,6.90
2014,03,27,02,05,6.90
2014,03,27,02,06,6.90
2014,03,27,02,07,6.90
2014,03,27,02,08,6.90
2014,03,27,02,09,6.90
2014,03,27,02,11,6.90
2014,03,27,02,12,6.90
2014,03,27,02,13,6.90
2014,03,27,02,15,6.90
2014,03,27,02,16,6.90
2014,03,27,02,17,6.90
2014,03,27,02,19,6.90
2014,03,27,02,20,6.90
2014,03,27,02,21,6.80
2014,03,27,02,23,6.80
2014,03,27,02,24,6.80
2014,03,27,02,25,6.80
2014,03,27,02,27,6.80
2014,03,27,02,28,6.80
2014,03,27,02,29,6.80
2014,03,27,02,30,6.80
2014,03,27,02,31,6.80
2014,03,27,02,32,6.80
2014,03,27,02,34,6.80
2014,03,27,02,35,6.80
2014,03,27,02,36,6.80
2014,03,27,02,38,6.80
2014,03,27,02,39,6.80
2014,03,27,02,40,6.80
2014,03,27,02,41,6.80
2014,03,27,02,42,6.80
2014,03,27,02,43,6.80
2014,03,27,02,44,6.80
2014,03,27,02,45,6.80
2014,03,27,02,46,6.80
2014,03,27,02,47,6.80
2014,03,27,02,48,6.80
2014,03,27,02,49,6.80
2014,03,27,02,50,6.80
2014,03,27,02,51,6.80
2014,03,27,02,52,6.80
2014,03,27,02,53,6.70
2014,03,27,02,54,6.70
2014,03,27,02,55,6.70
2014,03,27,02,56,6.70
2014,03,27,02,57,6.70
2014,03,27,02,58,6.70
2014,03,27,02,59,6.70
2014,03,27,03,00,6.70
2014,03,27,03,01,6.70
2014,03,27,03,02,6.70
2014,03,27,03,04,6.70
2014,03,27,03,06,6.70
2014,03,27,03,07,6.70
2014,03,27,03,08,6.70
2014,03,27,03,09,6.70
2014,03,27,03,10,6.70
2014,03,27,03,11,6.70
2014,03,27,03,12,6.70
2014,03,27,03,13,6.70
2014,03,27,03,14,6.70
2014,03,27,03,15,6.70
2014,03,27,03,16,6.70
2014,03,27,03,17,6.70
2014,03,27,03,18,6.70
2014,03,27,03,19,6.70
2014,03,27,03,20,6.70
2014,03,27,03,21,6.70
2014,03,27,03,22,6.70
2014,03,27,03,23,6.70
2014,03,27,03,25,6.70
2014,03,27,03,26,6.70
2014,03,27,03,27,6.70
2014,03,27,03,28,6.70
2014,03,27,03,29,6.70
2014,03,27,03,30,6.70
2014,03,27,03,31,6.70
2014,03,27,03,32,6.70
2014,03,27,03,33,6.70
2014,03,27,03,34,6.70
2014,03,27,03,35,6.70
2014,03,27,03,36,6.70
2014,03,27,03,37,6.70
2014,03,27,03,38,6.70
2014,03,27,03,39,6.70
2014,03,27,03,40,6.70
2014,03,27,03,42,6.70
2014,03,27,03,43,6.70
2014,03,27,03,44,6.70
2014,03,27,03,45,6.70
2014,03,27,03,46,6.70
2014,03,27,03,48,6.70
2014,03,27,03,49,6.70
2014,03,27,03,50,6.70
2014,03,27,03,51,6.70
2014,03,27,03,52,6.70
2014,03,27,03,53,6.70
2014,03,27,03,54,6.70
2014,03,27,03,55,6.70
2014,03,27,03,56,6.70
2014,03,27,03,57,6.70
2014,03,27,03,58,6.70
2014,03,27,03,59,6.70
2014,03,27,04,00,6.70
2014,03,27,04,01,6.60
2014,03,27,04,03,6.60
2014,03,27,04,04,6.70
2014,03,27,04,05,6.60
2014,03,27,04,06,6.70
2014,03,27,04,07,6.60
2014,03,27,04,08,6.60
2014,03,27,04,09,6.70
2014,03,27,04,10,6.70
2014,03,27,04,11,6.60
2014,03,27,04,12,6.70
2014,03,27,04,13,6.60
2014,03,27,04,14,6.60
2014,03,27,04,15,6.60
2014,03,27,04,16,6.60
2014,03,27,04,17,6.60
2014,03,27,04,18,6.60
2014,03,27,04,19,6.60
2014,03,27,04,20,6.60
2014,03,27,04,21,6.60
2014,03,27,04,22,6.60
2014,03,27,04,23,6.60
2014,03,27,04,24,6.60
2014,03,27,04,25,6.60
2014,03,27,04,26,6.60
2014,03,27,04,27,6.60
2014,03,27,04,28,6.60
2014,03,27,04,29,6.60
2014,03,27,04,30,6.60
2014,03,27,04,31,6.60
2014,03,27,04,32,6.60
2014,03,27,04,33,6.60
2014,03,27,04,34,6.60
2014,03,27,04,35,6.60
2014,03,27,04,37,6.60
2014,03,27,04,38,6.60
2014,03,27,04,39,6.60
2014,03,27,04,40,6.60
2014,03,27,04,41,6.60
2014,03,27,04,43,6.60
2014,03,27,04,44,6.60
2014,03,27,04,45,6.60
2014,03,27,04,46,6.60
2014,03,27,04,48,6.60
2014,03,27,04,49,6.60
2014,03,27,04,51,6.60
2014,03,27,04,52,6.60
2014,03,27,04,53,6.60
2014,03,27,04,54,6.50
2014,03,27,04,55,6.60
2014,03,27,04,56,6.50
2014,03,27,04,57,6.50
2014,03,27,04,59,6.50
2014,03,27,05,00,6.50
2014,03,27,05,01,6.50
2014,03,27,05,02,6.50
2014,03,27,05,04,6.50
2014,03,27,05,05,6.50
2014,03,27,05,06,6.50
2014,03,27,05,07,6.50
2014,03,27,05,08,6.50
2014,03,27,05,09,6.50
2014,03,27,05,10,6.40
2014,03,27,05,11,6.40
2014,03,27,05,12,6.40
2014,03,27,05,13,6.40
2014,03,27,05,14,6.40
2014,03,27,05,15,6.40
2014,03,27,05,16,6.40
2014,03,27,05,17,6.40
2014,03,27,05,18,6.40
2014,03,27,05,19,6.40
2014,03,27,05,20,6.40
2014,03,27,05,21,6.40
2014,03,27,05,22,6.40
2014,03,27,05,23,6.40
2014,03,27,05,24,6.40
2014,03,27,05,25,6.40
2014,03,27,05,26,6.40
2014,03,27,05,27,6.40
2014,03,27,05,28,6.40
2014,03,27,05,29,6.40
2014,03,27,05,30,6.40
2014,03,27,05,31,6.40
2014,03,27,05,32,6.40
2014,03,27,05,33,6.40
2014,03,27,05,34,6.40
2014,03,27,05,35,6.40
2014,03,27,05,36,6.30
2014,03,27,05,37,6.40
2014,03,27,05,38,6.30
2014,03,27,05,39,6.30
2014,03,27,05,40,6.30
2014,03,27,05,42,6.30
2014,03,27,05,44,6.30
2014,03,27,05,45,6.30
2014,03,27,05,48,6.30
2014,03,27,05,49,6.30
2014,03,27,05,51,6.30
2014,03,27,05,52,6.30
2014,03,27,05,54,6.30
2014,03,27,05,55,6.30
2014,03,27,05,57,6.30
2014,03,27,05,58,6.30
2014,03,27,05,59,6.30
2014,03,27,06,00,6.30
2014,03,27,06,01,6.30
2014,03,27,06,02,6.30
2014,03,27,06,04,6.30
2014,03,27,06,05,6.30
2014,03,27,06,06,6.30
2014,03,27,06,07,6.30
2014,03,27,06,08,6.30
2014,03,27,06,09,6.30
2014,03,27,06,10,6.30
2014,03,27,06,11,6.30
2014,03,27,06,12,6.30
2014,03,27,06,13,6.30
2014,03,27,06,14,6.30
2014,03,27,06,15,6.30
2014,03,27,06,16,6.30
2014,03,27,06,17,6.30
2014,03,27,06,18,6.30
2014,03,27,06,22,6.20
2014,03,27,06,25,6.20
2014,03,27,06,26,6.30
2014,03,27,06,28,6.30
2014,03,27,06,29,6.30
2014,03,27,06,31,6.30
2014,03,27,06,32,6.30
2014,03,27,06,33,6.30
2014,03,27,06,34,6.20
2014,03,27,06,35,6.20
2014,03,27,06,36,6.20
2014,03,27,06,37,6.20
2014,03,27,06,39,6.20
2014,03,27,06,40,6.20
2014,03,27,06,42,6.20
2014,03,27,06,43,6.20
2014,03,27,06,44,6.20
2014,03,27,06,45,6.20
2014,03,27,06,46,6.20
2014,03,27,06,48,6.20
2014,03,27,06,50,6.20
2014,03,27,06,51,6.20
2014,03,27,06,52,6.20
2014,03,27,06,53,6.20
2014,03,27,06,54,6.20
2014,03,27,06,56,6.20
2014,03,27,06,57,6.20
2014,03,27,06,59,6.10
2014,03,27,07,00,6.20
2014,03,27,07,01,6.10
2014,03,27,07,03,6.10
2014,03,27,07,04,6.10
2014,03,27,07,05,6.10
2014,03,27,07,06,6.10
2014,03,27,07,07,6.10
2014,03,27,07,08,6.10
2014,03,27,07,09,6.10
2014,03,27,07,10,6.10
2014,03,27,07,12,6.10
2014,03,27,07,13,6.10
2014,03,27,07,14,6.10
2014,03,27,07,17,6.10
2014,03,27,07,18,6.10
2014,03,27,07,19,6.10
2014,03,27,07,20,6.10
2014,03,27,07,21,6.10
2014,03,27,07,22,6.10
2014,03,27,07,23,6.10
2014,03,27,07,24,6.10
2014,03,27,07,25,6.10
2014,03,27,07,27,6.10
2014,03,27,07,29,6.10
2014,03,27,07,30,6.10
2014,03,27,07,32,6.10
2014,03,27,07,34,6.00
2014,03,27,07,35,6.00
2014,03,27,07,36,6.00
2014,03,27,07,38,6.00
2014,03,27,07,39,6.00
2014,03,27,07,41,6.00
2014,03,27,07,42,6.00
2014,03,27,07,43,6.00
2014,03,27,07,44,6.00
2014,03,27,07,45,6.00
2014,03,27,07,46,6.00
2014,03,27,07,48,6.00
2014,03,27,07,50,6.00
2014,03,27,07,51,6.00
2014,03,27,07,53,6.00
2014,03,27,07,54,6.00
2014,03,27,07,58,6.00
2014,03,27,07,59,6.00
2014,03,27,08,00,6.10
2014,03,27,08,01,6.10
2014,03,27,08,03,6.10
2014,03,27,08,05,6.10
2014,03,27,08,06,6.10
2014,03,27,08,07,6.10
2014,03,27,08,08,6.10
2014,03,27,08,09,6.10
2014,03,27,08,10,6.10
2014,03,27,08,11,6.20
2014,03,27,08,12,6.20
2014,03,27,08,13,6.20
2014,03,27,08,14,6.20
2014,03,27,08,16,6.20
2014,03,27,08,17,6.20
2014,03,27,08,22,6.20
2014,03,27,08,23,6.30
2014,03,27,08,24,6.30
2014,03,27,08,25,6.30
2014,03,27,08,26,6.30
2014,03,27,08,27,6.30
2014,03,27,08,29,6.30
2014,03,27,08,30,6.30
2014,03,27,08,31,6.30
2014,03,27,08,32,6.30
2014,03,27,08,34,6.30
2014,03,27,08,35,6.40
2014,03,27,08,36,6.40
2014,03,27,08,37,6.40
2014,03,27,08,38,6.40
2014,03,27,08,39,6.40
2014,03,27,08,40,6.40
2014,03,27,08,41,6.40
2014,03,27,08,42,6.40
2014,03,27,08,43,6.40
2014,03,27,08,44,6.40
2014,03,27,08,45,6.40
2014,03,27,08,46,6.40
2014,03,27,08,47,6.40
2014,03,27,08,48,6.40
2014,03,27,08,49,6.50
2014,03,27,08,50,6.50
2014,03,27,08,51,6.50
2014,03,27,08,52,6.50
2014,03,27,08,53,6.50
2014,03,27,08,54,6.50
2014,03,27,08,55,6.60
2014,03,27,08,56,6.60
2014,03,27,08,57,6.60
2014,03,27,08,58,6.60
2014,03,27,08,59,6.60
2014,03,27,09,00,6.60
2014,03,27,09,01,6.70
2014,03,27,09,03,6.70
2014,03,27,09,04,6.70
2014,03,27,09,05,6.70
2014,03,27,09,06,6.70
2014,03,27,09,07,6.70
2014,03,27,09,08,6.80
2014,03,27,09,09,6.80
2014,03,27,09,10,6.80
2014,03,27,09,11,6.80
2014,03,27,09,12,6.80
2014,03,27,09,13,6.90
2014,03,27,09,14,6.90
2014,03,27,09,15,6.90
2014,03,27,09,16,7.00
2014,03,27,09,17,7.10
2014,03,27,09,18,7.10
2014,03,27,09,19,7.10
2014,03,27,09,20,7.20
2014,03,27,09,21,7.20
2014,03,27,09,22,7.20
2014,03,27,09,23,7.30
2014,03,27,09,24,7.30
2014,03,27,09,25,7.40
2014,03,27,09,26,7.40
2014,03,27,09,27,7.40
2014,03,27,09,28,7.40
2014,03,27,09,29,7.50
2014,03,27,09,31,7.60
2014,03,27,09,32,7.70
2014,03,27,09,33,7.70
2014,03,27,09,34,7.70
2014,03,27,09,35,7.80
2014,03,27,09,36,7.80
2014,03,27,09,37,7.90
2014,03,27,09,38,8.00
2014,03,27,09,39,8.10
2014,03,27,09,40,8.10
2014,03,27,09,41,8.20
2014,03,27,09,42,8.20
2014,03,27,09,43,8.30
2014,03,27,09,44,8.30
2014,03,27,09,45,8.30
2014,03,27,09,46,8.30
2014,03,27,09,47,8.30
2014,03,27,09,48,8.40
2014,03,27,09,49,8.40
2014,03,27,09,50,8.40
2014,03,27,09,51,8.40
2014,03,27,09,52,8.50
2014,03,27,09,53,8.50
2014,03,27,09,54,8.60
2014,03,27,09,55,8.60
2014,03,27,09,56,8.70
2014,03,27,09,57,8.70
2014,03,27,09,58,8.70
2014,03,27,09,59,8.70
2014,03,27,10,00,8.80
2014,03,27,10,01,8.80
2014,03,27,10,03,8.80
2014,03,27,10,04,8.80
2014,03,27,10,05,8.90
2014,03,27,10,06,8.90
2014,03,27,10,07,8.90
2014,03,27,10,08,8.90
2014,03,27,10,09,8.90
2014,03,27,10,10,8.90
2014,03,27,10,12,9.20
2014,03,27,10,13,9.30
2014,03,27,10,14,9.30
2014,03,27,10,15,9.30
2014,03,27,10,16,9.40
2014,03,27,10,17,9.40
2014,03,27,10,18,9.50
2014,03,27,10,19,9.50
2014,03,27,10,20,9.50
2014,03,27,10,21,9.60
2014,03,27,10,22,9.60
2014,03,27,10,23,9.60
2014,03,27,10,24,9.70
2014,03,27,10,25,9.70
2014,03,27,10,26,9.80
2014,03,27,10,27,9.80
2014,03,27,10,28,9.90
2014,03,27,10,29,10.00
2014,03,27,10,30,10.10
2014,03,27,10,31,10.10
2014,03,27,10,32,10.20
2014,03,27,10,34,10.30
2014,03,27,10,35,10.30
2014,03,27,10,36,10.40
2014,03,27,10,37,10.40
2014,03,27,10,38,10.50
2014,03,27,10,40,10.50
2014,03,27,10,41,10.50
2014,03,27,10,42,10.50
2014,03,27,10,43,10.50
2014,03,27,10,44,10.50
2014,03,27,10,45,10.60
2014,03,27,10,46,10.60
2014,03,27,10,47,10.60
2014,03,27,10,48,10.60
2014,03,27,10,49,10.60
2014,03,27,10,50,10.70
2014,03,27,10,51,10.70
2014,03,27,10,52,10.70
2014,03,27,10,53,10.70
2014,03,27,10,54,10.60
2014,03,27,10,55,10.60
2014,03,27,10,56,10.50
2014,03,27,10,57,10.40
2014,03,27,10,58,10.40
2014,03,27,10,59,10.30
2014,03,27,11,00,10.30
2014,03,27,11,01,10.30
2014,03,27,11,03,10.30
2014,03,27,11,04,10.30
2014,03,27,11,05,10.30
2014,03,27,11,06,10.40
2014,03,27,11,07,10.40
2014,03,27,11,08,10.40
2014,03,27,11,09,10.40
2014,03,27,11,11,10.50
2014,03,27,11,12,10.60
2014,03,27,11,13,10.60
2014,03,27,11,14,10.60
2014,03,27,11,15,10.60
2014,03,27,11,17,10.70
2014,03,27,11,18,10.80
2014,03,27,11,19,10.80
2014,03,27,11,21,10.80
2014,03,27,11,22,10.80
2014,03,27,11,23,10.80
2014,03,27,11,24,10.70
2014,03,27,11,25,10.70
2014,03,27,11,26,10.70
2014,03,27,11,27,10.70
2014,03,27,11,28,10.80
2014,03,27,11,29,10.80
2014,03,27,11,30,10.80
2014,03,27,11,31,10.90
2014,03,27,11,32,10.90
2014,03,27,11,33,11.10
2014,03,27,11,34,11.20
2014,03,27,11,35,11.30
2014,03,27,11,36,11.40
2014,03,27,11,37,11.60
2014,03,27,11,38,11.70
2014,03,27,11,39,11.80
2014,03,27,11,40,11.90
2014,03,27,11,41,12.10
2014,03,27,11,42,12.20
2014,03,27,11,43,12.20
2014,03,27,11,44,12.20
2014,03,27,11,45,12.20
2014,03,27,11,46,12.10
2014,03,27,11,47,12.10
2014,03,27,11,48,12.10
2014,03,27,11,49,12.10
2014,03,27,11,50,12.10
2014,03,27,11,51,12.10
2014,03,27,11,52,12.10
2014,03,27,11,53,12.20
2014,03,27,11,54,12.20
2014,03,27,11,55,12.20
2014,03,27,11,56,12.20
2014,03,27,11,57,12.20
2014,03,27,11,58,12.30
2014,03,27,11,59,12.30
2014,03,27,12,00,12.30
2014,03,27,12,01,12.30
2014,03,27,12,02,12.30
2014,03,27,12,04,12.40
2014,03,27,12,05,12.30
2014,03,27,12,06,12.30
2014,03,27,12,07,12.30
2014,03,27,12,08,12.30
2014,03,27,12,09,12.30
2014,03,27,12,10,12.40
2014,03,27,12,11,12.40
2014,03,27,12,12,12.40
2014,03,27,12,13,12.50
2014,03,27,12,14,12.40
2014,03,27,12,15,12.40
2014,03,27,12,16,12.40
2014,03,27,12,17,12.40
2014,03,27,12,18,12.30
2014,03,27,12,19,12.30
2014,03,27,12,20,12.30
2014,03,27,12,21,12.30
2014,03,27,12,22,12.30
2014,03,27,12,23,12.30
2014,03,27,12,24,12.30
2014,03,27,12,25,12.30
2014,03,27,12,26,12.40
2014,03,27,12,27,12.50
2014,03,27,12,28,12.50
2014,03,27,12,29,12.50
2014,03,27,12,30,12.50
2014,03,27,12,31,12.50
2014,03,27,12,33,12.50
2014,03,27,12,34,12.50
2014,03,27,12,35,12.50
2014,03,27,12,36,12.50
2014,03,27,12,37,12.40
2014,03,27,12,38,12.40
2014,03,27,12,40,12.40
2014,03,27,12,41,12.30
2014,03,27,12,42,12.30
2014,03,27,12,43,12.30
2014,03,27,12,44,12.30
2014,03,27,12,45,12.30
2014,03,27,12,46,12.30
2014,03,27,12,47,12.30
2014,03,27,12,48,12.30
2014,03,27,12,49,12.30
2014,03,27,12,50,12.30
2014,03,27,12,51,12.30
2014,03,27,12,52,12.30
2014,03,27,12,53,12.20
2014,03,27,12,54,12.20
2014,03,27,12,55,12.20
2014,03,27,12,56,12.20
2014,03,27,12,57,12.20
2014,03,27,12,58,12.20
2014,03,27,12,59,12.20
2014,03,27,13,00,12.20
2014,03,27,13,01,12.20
2014,03,27,13,03,12.20
2014,03,27,13,04,12.20
2014,03,27,13,05,12.20
2014,03,27,13,06,12.20
2014,03,27,13,07,12.20
2014,03,27,13,08,12.20
2014,03,27,13,09,12.20
2014,03,27,13,10,12.10
2014,03,27,13,11,12.10
2014,03,27,13,12,12.10
2014,03,27,13,14,12.00
2014,03,27,13,15,11.90
2014,03,27,13,16,11.90
2014,03,27,13,17,11.90
2014,03,27,13,18,11.90
2014,03,27,13,19,11.90
2014,03,27,13,20,11.90
2014,03,27,13,22,11.90
2014,03,27,13,23,11.90
2014,03,27,13,25,11.80
2014,03,27,13,26,11.80
2014,03,27,13,27,11.80
2014,03,27,13,28,11.80
2014,03,27,13,29,11.80
2014,03,27,13,30,11.80
2014,03,27,13,31,11.70
2014,03,27,13,32,11.70
2014,03,27,13,33,11.70
2014,03,27,13,34,11.70
2014,03,27,13,35,11.70
2014,03,27,13,36,11.70
2014,03,27,13,37,11.80
2014,03,27,13,38,11.80
2014,03,27,13,39,11.80
2014,03,27,13,40,11.90
2014,03,27,13,41,11.90
2014,03,27,13,42,12.00
2014,03,27,13,43,12.00
2014,03,27,13,44,12.10
2014,03,27,13,45,12.20
2014,03,27,13,46,12.20
2014,03,27,13,47,12.20
2014,03,27,13,48,12.30
2014,03,27,13,49,12.30
2014,03,27,13,50,12.40
2014,03,27,13,51,12.40
2014,03,27,13,52,12.40
2014,03,27,13,53,12.40
2014,03,27,13,54,12.40
2014,03,27,13,55,12.40
2014,03,27,13,56,12.30
2014,03,27,13,57,12.30
2014,03,27,13,58,12.30
2014,03,27,13,59,12.40
2014,03,27,14,00,12.30
2014,03,27,14,01,12.30
2014,03,27,14,02,12.30
2014,03,27,14,04,12.40
2014,03,27,14,05,12.40
2014,03,27,14,06,12.40
2014,03,27,14,07,12.40
2014,03,27,14,08,12.40
2014,03,27,14,09,12.40
2014,03,27,14,10,12.20
2014,03,27,14,11,12.10
2014,03,27,14,12,12.10
2014,03,27,14,13,12.00
2014,03,27,14,14,12.00
2014,03,27,14,15,11.90
2014,03,27,14,16,11.90
2014,03,27,14,17,11.90
2014,03,27,14,18,11.80
2014,03,27,14,19,11.80
2014,03,27,14,20,11.80
2014,03,27,14,21,11.70
2014,03,27,14,22,11.70
2014,03,27,14,23,11.80
2014,03,27,14,24,11.80
2014,03,27,14,25,11.80
2014,03,27,14,26,11.70
2014,03,27,14,27,11.70
2014,03,27,14,28,11.70
2014,03,27,14,29,11.70
2014,03,27,14,30,11.70
2014,03,27,14,31,11.70
2014,03,27,14,32,11.70
2014,03,27,14,33,11.60
2014,03,27,14,34,11.60
2014,03,27,14,35,11.60
2014,03,27,14,36,11.60
2014,03,27,14,37,11.60
2014,03,27,14,38,11.60
2014,03,27,14,39,11.60
2014,03,27,14,40,11.50
2014,03,27,14,41,11.50
2014,03,27,14,42,11.40
2014,03,27,14,43,11.40
2014,03,27,14,44,11.30
2014,03,27,14,45,11.30
2014,03,27,14,46,11.20
2014,03,27,14,47,11.20
2014,03,27,14,48,11.10
2014,03,27,14,49,11.10
2014,03,27,14,50,11.10
2014,03,27,14,51,11.00
2014,03,27,14,52,10.90
2014,03,27,14,53,10.90
2014,03,27,14,54,10.80
2014,03,27,14,55,10.80
2014,03,27,14,57,10.70
2014,03,27,14,58,10.70
2014,03,27,14,59,10.70
2014,03,27,15,00,10.60
2014,03,27,15,01,10.60
2014,03,27,15,02,10.50
2014,03,27,15,04,10.40
2014,03,27,15,05,10.40
2014,03,27,15,06,10.40
2014,03,27,15,07,10.40
2014,03,27,15,08,10.40
2014,03,27,15,09,10.40
2014,03,27,15,10,10.30
2014,03,27,15,11,10.30
2014,03,27,15,12,10.30
2014,03,27,15,13,10.30
2014,03,27,15,14,10.30
2014,03,27,15,15,10.30
2014,03,27,15,16,10.30
2014,03,27,15,18,10.40
2014,03,27,15,19,10.40
2014,03,27,15,20,10.40
2014,03,27,15,21,10.40
2014,03,27,15,22,10.30
2014,03,27,15,23,10.30
2014,03,27,15,24,10.40
2014,03,27,15,25,10.40
2014,03,27,15,26,10.40
2014,03,27,15,27,10.50
2014,03,27,15,28,10.60
2014,03,27,15,29,10.60
2014,03,27,15,30,10.60
2014,03,27,15,31,10.70
2014,03,27,15,32,10.70
2014,03,27,15,33,10.70
2014,03,27,15,34,10.70
2014,03,27,15,35,10.80
2014,03,27,15,36,10.80
2014,03,27,15,37,10.80
2014,03,27,15,38,10.90
2014,03,27,15,39,10.90
2014,03,27,15,40,10.90
2014,03,27,15,41,10.90
2014,03,27,15,42,10.90
2014,03,27,15,43,10.90
2014,03,27,15,44,10.90
2014,03,27,15,45,10.90
2014,03,27,15,46,10.90
2014,03,27,15,47,10.90
2014,03,27,15,48,10.90
2014,03,27,15,49,10.80
2014,03,27,15,50,10.80
2014,03,27,15,51,10.90
2014,03,27,15,52,10.90
2014,03,27,15,53,10.90
2014,03,27,15,54,10.90
2014,03,27,15,55,10.90
2014,03,27,15,56,11.00
2014,03,27,15,58,11.10
2014,03,27,15,59,11.10
2014,03,27,16,00,11.10
2014,03,27,16,01,11.10
2014,03,27,16,03,11.00
2014,03,27,16,04,10.90
2014,03,27,16,05,10.90
2014,03,27,16,06,10.80
2014,03,27,16,07,10.80
2014,03,27,16,08,10.70
2014,03,27,16,09,10.70
2014,03,27,16,10,10.70
2014,03,27,16,11,10.60
2014,03,27,16,12,10.60
2014,03,27,16,13,10.60
2014,03,27,16,14,10.60
2014,03,27,16,15,10.60
2014,03,27,16,16,10.60
2014,03,27,16,17,10.60
2014,03,27,16,18,10.60
2014,03,27,16,19,10.60
2014,03,27,16,20,10.60
2014,03,27,16,21,10.60
2014,03,27,16,22,10.60
2014,03,27,16,23,10.60
2014,03,27,16,24,10.60
2014,03,27,16,25,10.60
2014,03,27,16,26,10.70
2014,03,27,16,27,10.70
2014,03,27,16,28,10.70
2014,03,27,16,29,10.70
2014,03,27,16,30,10.70
2014,03,27,16,31,10.80
2014,03,27,16,32,10.80
2014,03,27,16,33,10.80
2014,03,27,16,34,10.80
2014,03,27,16,36,10.80
2014,03,27,16,37,10.80
2014,03,27,16,39,10.80
2014,03,27,16,41,10.90
2014,03,27,16,42,10.90
2014,03,27,16,43,10.90
2014,03,27,16,44,10.90
2014,03,27,16,45,10.90
2014,03,27,16,46,11.00
2014,03,27,16,48,11.10
2014,03,27,16,49,11.10
2014,03,27,16,50,11.20
2014,03,27,16,51,11.20
2014,03,27,16,52,11.20
2014,03,27,16,53,11.30
2014,03,27,16,54,11.40
2014,03,27,16,55,11.50
2014,03,27,16,56,11.60
2014,03,27,16,57,11.60
2014,03,27,16,58,11.70
2014,03,27,16,59,11.70
2014,03,27,17,00,11.70
2014,03,27,17,01,11.70
2014,03,27,17,02,11.70
2014,03,27,17,03,11.70
2014,03,27,17,04,11.70
2014,03,27,17,05,11.60
2014,03,27,17,06,11.60
2014,03,27,17,07,11.50
2014,03,27,17,08,11.50
2014,03,27,17,09,11.40
2014,03,27,17,10,11.40
2014,03,27,17,11,11.30
2014,03,27,17,12,11.30
2014,03,27,17,13,11.30
2014,03,27,17,14,11.30
2014,03,27,17,15,11.30
2014,03,27,17,17,11.40
2014,03,27,17,18,11.40
2014,03,27,17,19,11.50
2014,03,27,17,20,11.60
2014,03,27,17,21,11.70
2014,03,27,17,22,11.70
2014,03,27,17,23,11.70
2014,03,27,17,24,11.80
2014,03,27,17,25,11.90
2014,03,27,17,26,11.90
2014,03,27,17,27,11.90
2014,03,27,17,28,11.90
2014,03,27,17,29,11.90
2014,03,27,17,31,11.80
2014,03,27,17,32,11.80
2014,03,27,17,33,11.80
2014,03,27,17,34,11.80
2014,03,27,17,35,11.80
2014,03,27,17,36,11.80
2014,03,27,17,38,11.70
2014,03,27,17,39,11.60
2014,03,27,17,40,11.50
2014,03,27,17,41,11.40
2014,03,27,17,42,11.40
2014,03,27,17,43,11.40
2014,03,27,17,44,11.40
2014,03,27,17,45,11.40
2014,03,27,17,47,11.50
2014,03,27,17,48,11.50
2014,03,27,17,49,11.40
2014,03,27,17,50,11.40
2014,03,27,17,52,11.50
2014,03,27,17,53,11.50
2014,03,27,17,54,11.60
2014,03,27,17,55,11.70
2014,03,27,17,56,11.70
2014,03,27,17,57,11.70
2014,03,27,17,58,11.70
2014,03,27,17,59,11.70
2014,03,27,18,00,11.70
2014,03,27,18,01,11.70
2014,03,27,18,03,11.70
2014,03,27,18,04,11.70
2014,03,27,18,05,11.70
2014,03,27,18,06,11.70
2014,03,27,18,07,11.70
2014,03,27,18,08,11.70
2014,03,27,18,09,11.70
2014,03,27,18,10,11.70
2014,03,27,18,11,11.70
2014,03,27,18,12,11.70
2014,03,27,18,13,11.70
2014,03,27,18,14,11.60
2014,03,27,18,15,11.40
2014,03,27,18,16,11.30
2014,03,27,18,17,11.30
2014,03,27,18,18,11.20
2014,03,27,18,19,11.20
2014,03,27,18,20,11.20
2014,03,27,18,21,11.10
2014,03,27,18,22,11.10
2014,03,27,18,23,11.10
2014,03,27,18,24,11.10
2014,03,27,18,25,11.00
2014,03,27,18,26,11.00
2014,03,27,18,27,11.00
2014,03,27,18,28,11.00
2014,03,27,18,29,11.00
2014,03,27,18,30,10.90
2014,03,27,18,31,11.00
2014,03,27,18,32,10.90
2014,03,27,18,33,10.90
2014,03,27,18,34,10.90
2014,03,27,18,35,10.90
2014,03,27,18,36,10.90
2014,03,27,18,37,10.90
2014,03,27,18,38,10.90
2014,03,27,18,39,10.90
2014,03,27,18,40,10.90
2014,03,27,18,41,10.90
2014,03,27,18,42,10.90
2014,03,27,18,43,10.90
2014,03,27,18,44,11.00
2014,03,27,18,45,10.90
2014,03,27,18,46,10.90
2014,03,27,18,47,10.90
2014,03,27,18,48,10.90
2014,03,27,18,49,10.80
2014,03,27,18,50,10.80
2014,03,27,18,51,10.80
2014,03,27,18,52,10.80
2014,03,27,18,53,10.70
2014,03,27,18,54,10.70
2014,03,27,18,55,10.70
2014,03,27,18,56,10.70
2014,03,27,18,57,10.70
2014,03,27,18,58,10.70
2014,03,27,18,59,10.70
2014,03,27,19,00,10.70
2014,03,27,19,01,10.60
2014,03,27,19,03,10.60
2014,03,27,19,04,10.60
2014,03,27,19,05,10.60
2014,03,27,19,06,10.60
2014,03,27,19,07,10.60
2014,03,27,19,08,10.60
2014,03,27,19,09,10.60
2014,03,27,19,10,10.60
2014,03,27,19,11,10.60
2014,03,27,19,12,10.60
2014,03,27,19,13,10.60
2014,03,27,19,14,10.60
2014,03,27,19,15,10.60
2014,03,27,19,16,10.60
2014,03,27,19,17,10.60
2014,03,27,19,18,10.60
2014,03,27,19,19,10.60
2014,03,27,19,20,10.60
2014,03,27,19,21,10.60
2014,03,27,19,22,10.60
2014,03,27,19,23,10.50
2014,03,27,19,24,10.50
2014,03,27,19,25,10.50
2014,03,27,19,26,10.50
2014,03,27,19,27,10.50
2014,03,27,19,28,10.50
2014,03,27,19,29,10.50
2014,03,27,19,30,10.40
2014,03,27,19,31,10.40
2014,03,27,19,32,10.40
2014,03,27,19,33,10.40
2014,03,27,19,34,10.40
2014,03,27,19,35,10.30